Regional Weather Roundup
Issued by NWS Burlington, VT

Current Version | Previous Version | Text Only | Print | Product List | Glossary Off
Versions: 1 2 3 4 5 6 7 8 9 10 11 12 13 14 15 16 17 18 19 20 21 22 23 24 25 26 27 28 29 30 31 32 33 34 35 36 37 38 39 40 41 42 43 44 45 46 47 48 49 50

000
ASUS41 KBTV 191510
RWRBTV
VERMONT REGIONAL WEATHER ROUNDUP
NATIONAL WEATHER SERVICE BURLINGTON VT
1100 AM EDT SAT APR 19 2014

NOTE: "FAIR" INDICATES FEW OR NO CLOUDS BELOW 12,000 FEET WITH NO
SIGNIFICANT WEATHER AND/OR OBSTRUCTIONS TO VISIBILITY.

* THESE REPORTS ARE NOT UNDER NWS QUALITY CONTROL AND/OR DO NOT
  REPORT WEATHER SUCH AS PRECIPITATION AND FOG.

VTZ001>019-191600-
_____VERMONT_____


CITY           SKY/WX    TMP DP  RH WIND       PRES   REMARKS
BURLINGTON     CLOUDY    42  38  85 N12       30.32R
MONTPELIER     CLOUDY    40  36  86 NW9       30.29R
MORRISVILLE    LGT RAIN  40  36  86 VRB7      30.29R
ST. JOHNSBURY*   N/A     42  34  73 MISG      30.24R
LYNDONVILLE*   CLOUDY    40  32  72 NW9G17    30.25R
MIDDLEBURY*    CLOUDY    43  38  83 NW13      30.29R
RUTLAND*       PTSUNNY   48  34  57 N18G26    30.26R
SPRINGFIELD    MOSUNNY   50  30  46 NW14G20   30.23R
HIGHGATE*      DRIZZLE   43  39  85 NW5       30.32R
NEWPORT*       CLOUDY    41  34  75 NW7       30.27R
BENNINGTON     PTSUNNY   51  31  46 NW13G22   30.26R
SUTTON*          N/A     39 N/A N/A MISG        N/A

_____LAKE CHAMPLAIN_____


CITY           SKY/WX    TMP DP  RH WIND       PRES   REMARKS
COLCHESTER RF*   N/A     39  37  93 N15         N/A
DIAMOND ISL*     N/A     41  37  87 N13         N/A

$$

NYZ007-026>031-035-052-083-191600-
_____NORTHERN NEW YORK_____


CITY           SKY/WX    TMP DP  RH WIND       PRES   REMARKS
PLATTSBURGH    CLOUDY    43  38  82 NW14      30.32R
SARANAC LAKE   CLOUDY    35  32  88 VRB6      30.29S
MASSENA        CLOUDY    43  32  65 NW14      30.40R
OGDENSBURG*    PTSUNNY   45  32  61 N14G20    30.41R
POTSDAM*       PTSUNNY   43  34  70 N14       30.38R
WATERTOWN      CLOUDY    44  30  57 N7        30.41R
FT DRUM        CLOUDY    40  33  75 N7        30.39R
ALBANY         MOSUNNY   52  33  48 VRB5      30.30R
GLENS FALLS    CLOUDY    55  33  43 N9G18     30.29R

$$
NHZ002-005-011-191600-
_____NEW HAMPSHIRE_____


CITY           SKY/WX    TMP DP  RH WIND       PRES   REMARKS
LEBANON        CLOUDY    51  32  48 N14       30.23R
KEENE          MOSUNNY   52  28  40 NW9G18    30.24R
MT WASHINGTON  FOG       19  19 100 NW53G59     N/A  VSB 0   WCI  -4
PLYMOUTH         N/A     47  35  63 NW12G20   30.22R
WHITEFIELD     CLOUDY    41  33  73 NW7       30.23R

$$

_____REGIONAL QUEBEC LOCATIONS_____


CITY           SKY/WX    TMP DP  RH WIND       PRES   REMARKS
MONTREAL       CLOUDY    45  27  49 N18       30.33R
QUEBEC CITY    PTSUNNY   43  30  61 NW18      30.21R
SHERBROOKE     CLOUDY    39  36  87 W8        30.24R

_____REGIONAL ONTARIO LOCATIONS_____


CITY           SKY/WX    TMP DP  RH WIND       PRES   REMARKS
OTTAWA         PTSUNNY   43  27  52 NW16G24   30.41R

______KEY______
VSB  - VISIBILITY IN MILES
WCI  - WIND CHILL INDEX
HX   - HEAT INDEX
$$



USA.gov is the U.S. government's official web portal to all federal, state and local government web resources and services.